East Kimberley Regional Airport

Airport
ICAO code: 
YPKU
IATA Code: 
KNX
Summary
ICAO Region: 
APAC
Territory: 
Location: 
Kununurra, Western Australia
Serving: 
Kununurra
Elevation: 
145 ft
Coordinates: 
Aerial View: 
15° 46' 41.434" S, 128° 42' 33.996" E
Metar
Observation
YPKU 061200Z AUTO 01010KT 9999 // NCD 29/24 Q1005
Station
Kununurra Kununurra Aws
Date/Time
2021-12-06 12:00:00
Wind direction
10°
Wind speed
10 kts
Lowest cloud amount
no clouds detected
Temperature
29°C
Dew point
24°C
Humidity
74%
QNH
1005 hPa
Weather condition
n/a

Kununurra Airport is an airport in Kununurra, Western Australia. The airport is 2.5 km from the town centre.

Runways

Designator Length Width Surface Rops
12/30 1829 30 ASP Yes/Yes
Airport map: 
Aerial View: 

SKYbrary Partners:

Safety knowledge contributed by: